{"data":{"norad_id":64122,"epoch":"2026-09-20T13:28:14.799360Z","epoch_age_seconds":135126,"freshness":"FRESH","line1":"1 64122U 25110AC  26263.56128240  .00000976  00000+0  43224-4 0  9991","line2":"2 64122  53.1569 199.7945 0001279  90.9007 269.2141 15.31703814 75734","mean_motion":15.31703814,"eccentricity":0.0001279,"inclination_deg":53.1569,"raan_deg":199.7945,"arg_perigee_deg":90.9007,"mean_anomaly_deg":269.2141,"bstar":4.3224e-5,"rev_number":7573,"period_min":94.012953864722,"perigee_km":469.85265600015,"apogee_km":471.60459582726,"semimajor_km":6848.8656259137,"source":"CELESTRAK","updated_at":"2026-09-21T09:00:35.232077Z"}}